Location: Newark
(49.8969°N, 3.3422°E)
Time: 11:20:51
(UTC+00:00)

A-11 Canister half - Pass Details

Date: 22 January 2020
Orbit: 1517 x 1683 km, 47.2° (Epoch: 25 February)

Event Time Altitude Azimuth Distance (km) Brightness Sun altitude
Exits shadow 02:11:15 28° 90° (E) 2,547 10.3 -50.0°
Drops below altitude 10° 02:14:59 10° 86° (E) 3,690 11.4 -49.5°
Sets 02:18:02 0° 84° (E) 4,683 12.1 -49.1°
